Deer Park, WA

10:45 AM PST on January 17, 2018 (GMT -0800)
Deer Park

Weather History for KDEW - June, 2013

Change the Weather History Date:

Thursday, June 20, 2013

  Actual Average Record
Temperature  
Mean Temperature 50 °F 60 °F  
Max Temperature 51 °F 74 °F 86 °F (2007)
Min Temperature 48 °F 45 °F 35 °F (2006)
Degree Days  
Heating Degree Days 15 6  
Month to date heating degree days 156 150  
Since 1 June heating degree days 156 150  
Since 1 July heating degree days 6969 7364  
Cooling Degree Days 0 1  
Month to date cooling degree days 2 3  
Year to date cooling degree days 5 6  
Since 1 June cooling degree days 2 3  
Moisture  
Dew Point 47 °F    
Average Humidity 91    
Maximum Humidity 96    
Minimum Humidity 86    
Precipitation  
Precipitation 1.07 in 0.05 in 1.07 in (2013)
Month to date precipitation 2.05 1.41  
Year to date precipitation 8.42 11.15  
Sea Level Pressure  
Sea Level Pressure 29.88 in    
Wind  
Wind Speed 11 mph (South)    
Max Wind Speed 20 mph    
Max Gust Speed 25 mph    
Visibility 8 miles    
Events Rain    
T = Trace of Precipitation, MM = Missing Value Source: NWS Daily Summary

Daily Weather History Graph

Daily Weather History Graph

Search for Another Location

Airport or City:

Trip Planner

Search our weather history database for the weather conditions in past years. The results will help you decide how hot, cold, wet, or windy it might be!

Date:

Astronomy

Jun. 20, 2013 Rise Set
Actual Time 4:50 AM PDT 8:52 PM PDT
Civil Twilight 4:08 AM PDT 9:33 PM PDT
Nautical Twilight 3:11 AM PDT 10:31 PM PDT
Astronomical Twilight 1:32 AM PDT 12:10 AM PDT
Moon 5:52 PM PDT (6/20) 2:30 AM PDT (6/20)
Length of Visible Light 17h 25m
Length of Day
16h 02m
Waxing Gibbous, 89% of the Moon is Illuminated
Jun 20
Waxing Gibbous
Jun 23
Full
Jun 29
Last Quarter
Jul 8
New
Jul 15
First Quarter

Hourly Weather History & Observations

Time (PDT) Temp. Dew Point Humidity Pressure Visibility Wind Dir Wind Speed Gust Speed Precip Events Conditions
12:35 AM 51.8 °F 50.0 °F 94% 29.80 in 10.0 mi SSW 8.1 mph - 0.02 in Rain Light Rain
12:49 AM 51.8 °F 50.0 °F 94% 29.79 in 10.0 mi SSW 9.2 mph - 0.02 in Rain Light Rain
12:53 AM 51.1 °F 50.0 °F 96% 29.80 in 10.0 mi SSW 10.4 mph - 0.03 in Rain Light Rain
1:39 AM 51.8 °F 48.2 °F 88% 29.78 in 10.0 mi South 9.2 mph - 0.01 in Rain Light Rain
1:53 AM 51.1 °F 48.9 °F 92% 29.78 in 9.0 mi South 8.1 mph - 0.02 in Rain Light Rain
2:53 AM 50.0 °F 48.9 °F 96% 29.77 in 6.0 mi South 6.9 mph - 0.10 in Rain Rain
3:08 AM 50.0 °F 48.2 °F 94% 29.77 in 5.0 mi South 6.9 mph - 0.03 in Rain Rain
3:15 AM 50.0 °F 48.2 °F 94% 29.77 in 5.0 mi South 6.9 mph - 0.04 in Rain Rain
3:28 AM 51.8 °F 50.0 °F 94% 29.76 in 5.0 mi SSW 10.4 mph - 0.07 in Rain Rain
3:46 AM 51.8 °F 50.0 °F 94% 29.75 in 5.0 mi SSW 9.2 mph - 0.10 in Rain Rain
3:53 AM 51.1 °F 48.9 °F 92% 29.75 in 5.0 mi SW 10.4 mph - 0.11 in Rain Light Rain
4:03 AM 51.8 °F 48.2 °F 88% 29.75 in 7.0 mi SW 11.5 mph - 0.01 in Rain Light Rain
4:33 AM 51.8 °F 48.2 °F 88% 29.75 in 6.0 mi SW 12.7 mph - 0.06 in Rain Light Rain
4:53 AM 50.0 °F 48.9 °F 96% 29.75 in 7.0 mi SW 13.8 mph - 0.08 in Rain Light Rain
5:00 AM 50.0 °F 48.2 °F 94% 29.75 in 6.0 mi SSW 15.0 mph - 0.01 in Rain Light Rain
5:35 AM 50.0 °F 48.2 °F 94% 29.76 in 7.0 mi SSW 15.0 mph 25.3 mph 0.05 in Rain Light Rain
5:39 AM 50.0 °F 48.2 °F 94% 29.76 in 6.0 mi SSW 16.1 mph 25.3 mph 0.05 in Rain Light Rain
5:53 AM 50.0 °F 48.0 °F 93% 29.77 in 5.0 mi SW 16.1 mph 24.2 mph 0.07 in Rain Light Rain
6:53 AM 48.9 °F 46.9 °F 93% 29.79 in 5.0 mi SW 15.0 mph 23.0 mph 0.07 in Rain Light Rain
7:53 AM 48.9 °F 46.9 °F 93% 29.81 in 6.0 mi SSW 16.1 mph - 0.06 in Rain Light Rain
8:03 AM 48.2 °F 46.4 °F 93% 29.80 in 6.0 mi SW 13.8 mph 23.0 mph 0.01 in Rain Light Rain
8:39 AM 48.2 °F 46.4 °F 93% 29.81 in 5.0 mi SSW 16.1 mph - 0.05 in Rain Light Rain
8:53 AM 48.9 °F 46.9 °F 93% 29.82 in 7.0 mi SW 13.8 mph - 0.06 in Rain Light Rain
9:01 AM 50.0 °F 46.4 °F 87% 29.81 in 8.0 mi SW 15.0 mph - 0.00 in Rain Light Rain
9:35 AM 48.2 °F 46.4 °F 93% 29.83 in 9.0 mi SW 16.1 mph 24.2 mph 0.03 in Rain Light Rain
9:53 AM 48.9 °F 46.0 °F 90% 29.84 in 9.0 mi SW 16.1 mph 23.0 mph 0.04 in Rain Light Rain
10:53 AM 50.0 °F 46.0 °F 86% 29.85 in 10.0 mi SSW 16.1 mph 21.9 mph 0.01 in Rain Light Rain
11:03 AM 50.0 °F 46.4 °F 87% 29.84 in 10.0 mi SSW 13.8 mph 23.0 mph 0.00 in Rain Light Rain
11:53 AM 50.0 °F 46.0 °F 86% 29.88 in 8.0 mi SSW 13.8 mph - 0.03 in Rain Light Rain
12:50 PM 50.0 °F 46.4 °F 87% 29.89 in 4.0 mi SSW 12.7 mph - 0.09 in Rain Rain
12:53 PM 50.0 °F 46.9 °F 89% 29.90 in 4.0 mi South 11.5 mph - 0.09 in Rain Rain
12:57 PM 50.0 °F 48.2 °F 94% 29.90 in 4.0 mi SSW 9.2 mph - 0.01 in Rain Rain
1:04 PM 50.0 °F 48.2 °F 94% 29.90 in 6.0 mi South 11.5 mph - 0.02 in Rain Light Rain
1:15 PM 50.0 °F 46.4 °F 87% 29.91 in 5.0 mi South 13.8 mph - 0.04 in Rain Rain
1:53 PM 50.0 °F 46.9 °F 89% 29.93 in 5.0 mi South 13.8 mph - 0.13 in Rain Rain
2:00 PM 50.0 °F 48.2 °F 94% 29.92 in 8.0 mi South 15.0 mph - 0.01 in Rain Light Rain
2:37 PM 50.0 °F 46.4 °F 87% 29.94 in 10.0 mi SSW 17.3 mph - 0.04 in Rain Light Rain
2:53 PM 50.0 °F 46.0 °F 86% 29.96 in 10.0 mi SSW 15.0 mph - 0.04 in Rain Light Rain
3:28 PM 50.0 °F 46.4 °F 87% 29.96 in 10.0 mi South 12.7 mph 21.9 mph 0.01 in Rain Light Rain
3:53 PM 50.0 °F 46.0 °F 86% 29.97 in 9.0 mi South 15.0 mph 23.0 mph 0.03 in Rain Light Rain
4:02 PM 50.0 °F 46.4 °F 87% 29.97 in 10.0 mi South 13.8 mph - 0.00 in Rain Light Rain
4:53 PM 50.0 °F 46.9 °F 89% 30.00 in 10.0 mi South 13.8 mph - 0.02 in Rain Light Rain
5:26 PM 50.0 °F 46.4 °F 87% 30.00 in 9.0 mi South 9.2 mph - 0.03 in Rain Light Rain
5:53 PM 50.0 °F 48.0 °F 93% 30.01 in 10.0 mi SSE 8.1 mph - 0.04 in Rain Light Rain
6:45 PM 50.0 °F 46.4 °F 87% 30.01 in 7.0 mi South 9.2 mph - 0.04 in Rain Light Rain
6:53 PM 50.0 °F 46.9 °F 89% 30.03 in 9.0 mi South 6.9 mph - 0.04 in Rain Light Rain
7:30 PM 50.0 °F 48.2 °F 94% 30.02 in 8.0 mi SSE 6.9 mph - 0.02 in Rain Light Rain
7:43 PM 48.2 °F 48.2 °F 100% 30.02 in 9.0 mi SSE 8.1 mph - 0.02 in Rain Light Rain
7:53 PM 48.9 °F 48.0 °F 97% 30.04 in 10.0 mi SSE 9.2 mph - 0.02 in   Overcast
8:14 PM 48.2 °F 46.4 °F 93% 30.03 in 10.0 mi SE 8.1 mph - N/A   Overcast
8:53 PM 48.9 °F 46.9 °F 93% 30.06 in 10.0 mi SE 6.9 mph - N/A   Overcast
9:53 PM 48.0 °F 46.9 °F 96% 30.07 in 10.0 mi ESE 4.6 mph - 0.01 in   Overcast
10:53 PM 48.0 °F 46.9 °F 96% 30.07 in 10.0 mi ESE 4.6 mph - N/A   Overcast
11:11 PM 48.2 °F 46.4 °F 93% 30.06 in 9.0 mi ESE 4.6 mph - N/A   Overcast
11:53 PM 48.0 °F 46.9 °F 96% 30.07 in 10.0 mi Calm Calm - N/A   Overcast